Home > Time Zones > World Clock > Weather > U.S.A. > Yuma > Past weeks

Flag for U.S.A. Weather past 2 weeks in Yuma, Arizona, U.S.A.

Now
46 °F

Passing clouds.


Feels Like: 45 °F
Forecast: 49 / 67 °F
Wind: 3 mph from Northeast

Location: Yuma Marine Corps Air Station

Current Time: Dec 19, 2014 at 6:59:17 AM

Latest Report: Dec 19, 2014 at 5:57 AM


Visibility: 10 mi

Pressure: 30.18 "Hg

Humidity: 83%

Dew point: 41 °F

Location of YumaLocation

Historic Weather in Yuma — Graph

°F

Yuma temperature yesterday

Maximum temperature yesterday: 67 °F (at 2:57 PM)
Minimum temperature yesterday: 48 °F (at 7:57 AM)
Average temperature yesterday: 57 °F

Past Weeks' High & Low Weather Summary

 TemperatureHumidityPressure
High129 °F (Dec 17, 8:57 AM)97% (Dec 18, 5:57 AM)30.19 "Hg (Dec 18, 5:57 AM)
Low46 °F (Dec 19, 5:57 AM)7% (Dec 17, 8:57 AM)29.83 "Hg (Dec 14, 6:57 AM)
Average64 °F54%30.04 "Hg
* Reported Dec 4 5:57 AM — Dec 19 5:57 AM, Yuma, Weather by CustomWeather, © 2014

Note: Actual official high and low records may vary slightly from our data, if they occured in-between our weather recording intervals... More about our weather records

Advertising

Yuma weather history for previous 24 hours

 ConditionsComfort  
Time TempWeatherWind HumidityBarometerVisibility
5:57 AM
Dec 19
46 °FPassing clouds.3 mph83%30.18 "Hg10 mi
4:57 AM48 °FPassing clouds.No wind77%30.18 "Hg10 mi
3:57 AM48 °FClear.No wind80%30.18 "Hg10 mi
2:57 AM49 °FClear.3 mph80%30.18 "Hg10 mi
1:57 AM49 °FClear.No wind80%30.19 "Hg10 mi
12:57 AM50 °FClear.No wind77%30.18 "Hg10 mi
11:57 PM
Dec 18
51 °FClear.No wind74%30.19 "Hg10 mi
10:57 PM52 °FPassing clouds.3 mph72%30.19 "Hg10 mi
9:57 PM53 °FPassing clouds.No wind72%30.18 "Hg10 mi
8:57 PM55 °FPassing clouds.No wind64%30.17 "Hg10 mi
7:57 PM58 °FPassing clouds.7 mph58%30.16 "Hg10 mi
6:57 PM60 °FPassing clouds.5 mph52%30.15 "Hg10 mi
5:57 PM61 °FPassing clouds.6 mph52%30.13 "Hg10 mi
4:57 PM65 °FScattered clouds.7 mph44%30.11 "Hg10 mi
2:57 PM67 °FPartly sunny.6 mph44%30.10 "Hg10 mi
1:57 PM66 °FScattered clouds.5 mph49%30.11 "Hg10 mi
12:57 PM63 °FScattered clouds.8 mph60%30.13 "Hg10 mi
11:57 AM63 °FPassing clouds.5 mph60%30.15 "Hg10 mi
10:57 AM58 °FPassing clouds.3 mph72%30.17 "Hg10 mi
9:57 AM57 °FFog.No wind62%30.16 "Hg10 mi
8:57 AMN/AFog.No windN/A30.14 "Hg6 mi
7:57 AM48 °FFog.3 mph93%30.13 "Hg6 mi
6:57 AM50 °FPassing clouds.No wind96%30.11 "Hg8 mi
Weather by CustomWeather, © 2014

See weather overviewHow to use our weather pages